, FL

(GMT )
Crestview

Weather History for KEGI - March, 2014

Change the Weather History Date:

Sunday, March 2, 2014

  Actual Average Record
Temperature  
Mean Temperature 57 °F -  
Max Temperature 72 °F - - ()
Min Temperature 42 °F - - ()
Degree Days  
Heating Degree Days 8    
Growing Degree Days 7 (Base 50)    
Moisture  
Dew Point 49 °F    
Average Humidity 91    
Maximum Humidity 100    
Minimum Humidity 29    
Precipitation  
Precipitation 0.00 in - - ()
Sea Level Pressure  
Sea Level Pressure 30.13 in    
Wind  
Wind Speed 3 mph (SE)    
Max Wind Speed 13 mph    
Max Gust Speed -    
Visibility 5 miles    
Events Fog    
T = Trace of Precipitation, MM = Missing Value Source: NWS Daily Summary

Daily Weather History Graph

Daily Weather History Graph

Search for Another Location

Airport or City:

Trip Planner

Search our weather history database for the weather conditions in past years. The results will help you decide how hot, cold, wet, or windy it might be!

Date:

Astronomy

Mar. 02, 2014 Rise Set
Actual Time 6:11 AM CST 5:45 PM CST
Civil Twilight 5:47 AM CST 6:09 PM CST
Nautical Twilight 5:19 AM CST 6:37 PM CST
Astronomical Twilight 4:51 AM CST 7:05 PM CST
Moon 6:50 AM CST (3/2) 7:30 PM CST (3/2)
Length of Visible Light 12h 22m
Length of Day
11h 34m
Waxing Crescent, 3% of the Moon is Illuminated
Mar 2
Waxing Crescent
Mar 8
First Quarter
Mar 16
Full
Mar 23
Last Quarter
Mar 30
New

Hourly Weather History & Observations

Time (CST) Temp. Windchill Dew Point Humidity Pressure Visibility Wind Dir Wind Speed Gust Speed Precip Events Conditions
12:08 AM 46.4 °F - 46.4 °F 100% 30.19 in 2.0 mi ENE 1.2 mph - N/A   Clear
12:13 AM 46.4 °F - 46.4 °F 100% 30.19 in 1.0 mi ENE 1.2 mph - N/A   Clear
12:18 AM 46.4 °F - 46.4 °F 100% 30.19 in 1.2 mi East 2.3 mph - N/A   Clear
12:23 AM 46.4 °F - 46.4 °F 100% 30.19 in 1.5 mi East 1.2 mph - N/A   Clear
12:28 AM 46.4 °F - 46.4 °F 100% 30.19 in 0.5 mi East 2.3 mph - N/A Fog Fog
12:58 AM 44.6 °F 43.1 °F 44.6 °F 100% 30.19 in 1.8 mi East 3.5 mph - N/A   Clear
1:03 AM 44.6 °F - 44.6 °F 100% 30.18 in 10.0 mi East 2.3 mph - N/A   Clear
1:29 AM 48.2 °F - 48.2 °F 100% 30.17 in 2.0 mi SE 4.6 mph - N/A   Partly Cloudy
1:34 AM 50.0 °F - 50.0 °F 100% 30.16 in 0.8 mi SE 4.6 mph - N/A   Mist
1:39 AM 51.8 °F - 51.8 °F 100% 30.17 in 0.5 mi SE 3.5 mph - N/A Fog Fog
1:58 AM 52.2 °F - 52.2 °F 100% 30.17 in 0.5 mi SSE 3.5 mph - N/A Fog Fog
2:03 AM 51.8 °F - 51.8 °F 100% 30.16 in 0.5 mi SSE 2.3 mph - N/A Fog Fog
2:33 AM 48.2 °F - 48.2 °F 100% 30.15 in 0.5 mi ESE 2.3 mph - N/A Fog Fog
2:43 AM 46.4 °F - 46.4 °F 100% 30.15 in 1.0 mi Calm Calm - N/A   Clear
2:53 AM 48.2 °F - 48.2 °F 100% 30.15 in 0.5 mi Calm Calm - N/A Fog Fog
2:58 AM 46.4 °F - 46.4 °F 100% 30.16 in 0.2 mi East 2.3 mph - N/A Fog Fog
3:08 AM 46.4 °F - 46.4 °F 100% 30.15 in 0.5 mi Calm Calm - N/A Fog Fog
3:18 AM 48.2 °F - 48.2 °F 100% 30.16 in 0.8 mi NE 1.2 mph - N/A   Clear
3:33 AM 44.6 °F - 44.6 °F 100% 30.16 in 1.0 mi ENE 2.3 mph - N/A   Clear
3:38 AM 44.6 °F - 44.6 °F 100% 30.16 in 0.8 mi ENE 2.3 mph - N/A   Clear
3:48 AM 44.6 °F - 44.6 °F 100% 30.16 in 1.2 mi Calm Calm - N/A   Clear
3:53 AM 44.6 °F - 44.6 °F 100% 30.16 in 4.0 mi Calm Calm - N/A   Clear
3:58 AM 44.8 °F - 44.8 °F 100% 30.17 in 7.0 mi Calm Calm - N/A   Clear
4:28 AM 42.8 °F - 42.8 °F 100% 30.17 in 2.5 mi NE 1.2 mph - N/A   Clear
4:33 AM 44.6 °F - 44.6 °F 100% 30.17 in 3.0 mi Calm Calm - N/A   Clear
4:43 AM 44.6 °F - 44.6 °F 100% 30.17 in 2.5 mi NE 2.3 mph - N/A   Clear
4:48 AM 44.6 °F - 44.6 °F 100% 30.17 in 4.0 mi ENE 2.3 mph - N/A   Clear
4:58 AM 43.2 °F - 43.2 °F 100% 30.18 in 10.0 mi East 1.2 mph - N/A   Clear
5:44 AM 42.8 °F - 42.8 °F 100% 30.18 in 2.5 mi Calm Calm - N/A   Clear
5:49 AM 42.8 °F - 42.8 °F 100% 30.18 in 1.5 mi Calm Calm - N/A   Clear
5:54 AM 42.8 °F - 42.8 °F 100% 30.18 in 2.0 mi Calm Calm - N/A   Clear
5:58 AM 42.8 °F - 42.8 °F 100% 30.19 in 4.0 mi Calm Calm - N/A   Clear
6:23 AM 42.8 °F - 42.8 °F 100% 30.19 in 0.8 mi Calm Calm - N/A   Clear
6:33 AM 42.8 °F - 42.8 °F 100% 30.19 in 7.0 mi Calm Calm - N/A   Clear
6:58 AM 42.8 °F 41.1 °F 42.8 °F 100% 30.20 in 10.0 mi SE 3.5 mph - N/A   Clear
7:58 AM 55.8 °F - 46.4 °F 71% 30.21 in 10.0 mi SE 3.5 mph - N/A   Clear
8:58 AM 63.5 °F - 43.5 °F 48% 30.22 in 10.0 mi SE 6.9 mph - N/A   Clear
9:58 AM 67.3 °F - 43.0 °F 41% 30.22 in 10.0 mi SSE 9.2 mph - N/A   Clear
10:58 AM 70.2 °F - 36.5 °F 29% 30.21 in 10.0 mi South 12.7 mph - N/A   Clear
11:58 AM 70.7 °F - 38.7 °F 31% 30.19 in 10.0 mi South 12.7 mph - N/A   Clear
12:58 PM 71.8 °F - 39.7 °F 31% 30.16 in 10.0 mi South 12.7 mph - N/A   Clear
1:58 PM 72.1 °F - 40.6 °F 32% 30.13 in 10.0 mi South 9.2 mph - N/A   Clear
2:58 PM 71.4 °F - 49.1 °F 45% 30.11 in 10.0 mi South 9.2 mph - N/A   Clear
3:58 PM 70.3 °F - 51.8 °F 52% 30.10 in 10.0 mi South 11.5 mph - N/A   Clear
4:58 PM 67.1 °F - 54.3 °F 63% 30.09 in 10.0 mi South 11.5 mph - N/A   Clear
5:58 PM 61.7 °F - 56.5 °F 83% 30.08 in 10.0 mi South 6.9 mph - N/A   Clear
6:58 PM 59.2 °F - 58.6 °F 98% 30.06 in 10.0 mi SSE 5.8 mph - N/A   Clear
7:58 PM 58.3 °F - 57.9 °F 99% 30.04 in 10.0 mi SSE 6.9 mph - N/A   Clear
8:09 PM 59.0 °F - 59.0 °F 100% 30.03 in 10.0 mi SSE 5.8 mph - N/A   Partly Cloudy
8:19 PM 59.0 °F - 59.0 °F 100% 30.04 in 10.0 mi SSE 6.9 mph - N/A   Mostly Cloudy
8:29 PM 59.0 °F - 59.0 °F 100% 30.03 in 8.0 mi SSE 8.1 mph - N/A   Mostly Cloudy
8:44 PM 59.0 °F - 59.0 °F 100% 30.04 in 2.5 mi South 6.9 mph - N/A   Overcast
8:49 PM 59.0 °F - 59.0 °F 100% 30.04 in 2.5 mi South 8.1 mph - N/A   Overcast
8:54 PM 59.0 °F - 59.0 °F 100% 30.04 in 3.0 mi South 8.1 mph - N/A   Overcast
8:58 PM 59.2 °F - 59.2 °F 100% 30.05 in 4.0 mi South 8.1 mph - N/A   Overcast
9:13 PM 59.0 °F - 59.0 °F 100% 30.04 in 10.0 mi South 8.1 mph - N/A   Overcast
9:23 PM 59.0 °F - 59.0 °F 100% 30.04 in 10.0 mi South 9.2 mph - N/A   Overcast
9:58 PM 61.0 °F - 61.0 °F 100% 30.05 in 10.0 mi South 9.2 mph - N/A   Overcast
10:18 PM 60.8 °F - 60.8 °F 100% 30.03 in 10.0 mi South 9.2 mph - N/A   Overcast
10:48 PM 60.8 °F - 60.8 °F 100% 30.02 in 10.0 mi SSE 8.1 mph - N/A   Overcast
10:58 PM 61.2 °F - 61.2 °F 100% 30.02 in 10.0 mi South 8.1 mph - N/A   Overcast
11:38 PM 60.8 °F - 60.8 °F 100% 30.00 in 10.0 mi South 8.1 mph - N/A   Overcast
11:58 PM 60.8 °F - 60.8 °F 100% 30.00 in 10.0 mi South 6.9 mph - N/A   Overcast